This demonstration page uses our WeatherBlox Daily Observations layout. Learn more.

Left ArrowRight Arrow

39.51506, -84.39828

Hourly Observations for April 13, 2015

Temp ( °F °C ) Dew Point ( °F °C ) Humidity (%) Winds ( mph kmh ) Pressure ( in mb ) Visibility ( mi km ) Precip ( " mm )
12:15 am 00:15 Clear 55 12.5 46 7.8 73 73 N N/A 30.09 1019 10 16.0934 N/A
12:35 am 00:35 Clear 55 12.5 46 8 74 74 N N/A 30.09 1019 10 16.0934 N/A
12:55 am 00:55 Clear 55 12.5 46 7.7 73 73 N N/A 30.09 1019 10 16.0934 N/A
1:15 am 01:15 Clear 55 12.5 46 7.8 73 73 N N/A 30.09 1019 10 16.0934 N/A
1:35 am 01:35 Clear 55 12.5 46 7.6 72 72 N N/A 30.09 1019 10 16.0934 N/A
1:55 am 01:55 Clear 55 12.5 44 6.9 69 69 N N/A 30.09 1019 10 16.0934 N/A
2:15 am 02:15 Clear 55 12.5 45 7.2 70 70 N N/A 30.06 1018 10 16.0934 N/A
2:35 am 02:35 Clear 55 12.5 46 7.5 72 72 N N/A 30.06 1018 10 16.0934 N/A
2:55 am 02:55 Clear 53 11.7 45 7.1 74 74 N N/A 30.06 1018 10 16.0934 N/A
3:15 am 03:15 Clear 49 9.7 42 5.6 76 76 N N/A 30.06 1018 10 16.0934 N/A
3:35 am 03:35 Clear 52 11 43 6.3 73 73 N N/A 30.06 1018 10 16.0934 N/A
3:55 am 03:55 Clear 52 11 45 7 77 77 N N/A 30.06 1018 10 16.0934 N/A
4:15 am 04:15 Clear 52 11 43 6.3 73 73 N N/A 30.09 1019 10 16.0934 N/A
4:35 am 04:35 Clear 49 9.6 42 5.6 76 76 N N/A 30.09 1019 10 16.0934 N/A
4:55 am 04:55 Clear 49 9.6 42 5.3 75 75 N N/A 30.09 1019 10 16.0934 N/A
5:15 am 05:15 Clear 49 9.6 43 6 78 78 N N/A 30.09 1019 10 16.0934 N/A
5:35 am 05:35 Clear 49 9.6 43 6.2 80 80 N N/A 30.09 1019 10 16.0934 N/A
5:55 am 05:55 Clear 49 9.6 43 6.2 80 80 SW 5 7 30.09 1019 10 16.0934 N/A
6:15 am 06:15 Clear 55 12.5 44 6.5 67 67 SW 3 6 30.09 1019 10 16.0934 N/A
6:35 am 06:35 Clear 54 12.4 46 7.7 73 73 SW 3 6 30.09 1019 10 16.0934 N/A
6:55 am 06:55 Clear 50 10 43 6.3 78 78 SW 3 6 30.12 1020 10 16.0934 N/A
7:15 am 07:15 Partly Cloudy 51 10.3 44 6.5 78 78 SW 5 7 30.12 1020 10 16.0934 N/A
7:35 am 07:35 Partly Cloudy 52 11 45 7.4 79 79 SW 5 7 30.12 1020 10 16.0934 N/A
7:55 am 07:55 Sunny 55 12.5 47 8.6 77 77 SSW 5 7 30.12 1020 10 16.0934 N/A
8:15 am 08:15 Partly Cloudy 57 14 48 9.1 73 73 SW 3 6 30.12 1020 10 16.0934 N/A
8:35 am 08:35 Partly Cloudy 62 16.6 50 10 65 65 S 9 15 30.09 1019 10 16.0934 N/A
8:55 am 08:55 Partly Cloudy 63 17.3 51 10.3 64 64 SSW 10 17 30.09 1019 10 16.0934 N/A
9:15 am 09:15 Partly Cloudy 67 19.5 52 11 58 58 SSW 10 17 30.09 1019 10 16.0934 N/A
9:35 am 09:35 Mostly Cloudy 68 20.2 53 11.7 58 58 SSW 9 15 30.09 1019 10 16.0934 N/A
9:55 am 09:55 Partly Cloudy 69 20.8 52 11.3 55 55 SSW 9 15 30.09 1019 10 16.0934 N/A
10:15 am 10:15 Sunny 72 22 53 11.8 52 52 SSW 17 28 30.06 1018 10 16.0934 N/A
10:35 am 10:35 Partly Cloudy 73 22.5 54 12.2 52 52 SW 20 31 30.06 1018 10 16.0934 N/A
10:55 am 10:55 Partly Cloudy 74 23.4 55 12.9 52 52 SW 26 43 30.09 1019 10 16.0934 N/A
11:15 am 11:15 Partly Cloudy 74 23.6 55 12.5 50 50 SW 25 41 30.09 1019 10 16.0934 N/A
11:35 am 11:35 Partly Cloudy 74 23.6 55 12.5 50 50 SSW 23 37 30.06 1018 10 16.0934 N/A
11:55 am 11:55 Sunny 74 23.6 55 12.5 50 50 SSW 18 30 30.06 1018 10 16.0934 N/A
12:15 pm 12:15 Sunny 74 23.6 54 12.2 49 49 SW 22 35 30.06 1018 10 16.0934 N/A
12:35 pm 12:35 Sunny 75 24 55 12.7 49 49 SW 21 33 30.06 1018 10 16.0934 N/A
12:55 pm 12:55 Sunny 77 25 56 13.5 49 49 SW 17 28 30.03 1017 10 16.0934 N/A
1:15 pm 13:15 Sunny 77 25.1 56 13.4 48 48 SW 16 26 30.03 1017 10 16.0934 N/A
1:35 pm 13:35 Sunny 77 25.1 56 13.2 48 48 SW 17 28 30.03 1017 10 16.0934 N/A
1:55 pm 13:55 Partly Cloudy 77 25.1 56 13.1 47 47 WSW 14 22 30.03 1017 10 16.0934 N/A
2:15 pm 14:15 Partly Cloudy 78 25.8 56 13.2 46 46 SW 18 30 30.03 1017 10 16.0934 N/A
2:35 pm 14:35 Mostly Cloudy 79 26 56 13.3 45 45 SW 16 26 30.03 1017 10 16.0934 N/A
2:55 pm 14:55 Mostly Cloudy 80 26.5 56 13.5 45 45 SSW 17 28 30 1016 10 16.0934 N/A
3:15 pm 15:15 Mostly Cloudy 78 25.6 56 13.5 47 47 SW 12 19 30 1016 10 16.0934 N/A
3:35 pm 15:35 Cloudy 78 25.3 55 12.9 46 46 SSW 14 22 30 1016 10 16.0934 N/A
3:55 pm 15:55 Mostly Cloudy 80 26.5 56 13.3 44 44 SW 13 20 30 1016 10 16.0934 N/A
4:15 pm 16:15 Partly Cloudy 80 26.5 56 13.1 44 44 SSW 17 28 29.97 1015 10 16.0934 N/A
4:35 pm 16:35 Partly Cloudy 80 26.6 55 12.9 43 43 SW 16 26 29.97 1015 10 16.0934 N/A
4:55 pm 16:55 Partly Cloudy 80 26.5 55 12.9 43 43 SW 17 28 29.97 1015 10 16.0934 N/A
5:15 pm 17:15 Mostly Cloudy 78 25.3 55 12.5 45 45 SW 13 20 29.97 1015 10 16.0934 N/A
5:35 pm 17:35 Mostly Cloudy 78 25.7 55 12.8 45 45 SSW 14 22 29.97 1015 10 16.0934 N/A
5:55 pm 17:55 Cloudy 74 23.6 61 16.2 63 63 NW 12 19 30 1016 10 16.0934 N/A
6:15 pm 18:15 Cloudy with Heavy Rain 69 20.8 63 17.3 80 80 W 13 20 30.03 1017 2.5 4.02335 N/A
6:35 pm 18:35 Cloudy with Rain 69 20.8 65 18.2 85 85 W 5 7 30.03 1017 4 6.43736 N/A
6:55 pm 18:55 Cloudy with Drizzle 69 20.8 65 18.2 85 85 N N/A 30.03 1017 10 16.0934 N/A
7:15 pm 19:15 Cloudy with Rain 69 20.8 65 18.1 85 85 NNW 3 6 30.03 1017 7 11.26538 N/A
7:35 pm 19:35 Cloudy with Light Rain 68 19.9 63 17 83 83 NW 16 26 30.06 1018 10 16.0934 N/A
7:55 pm 19:55 Cloudy with Rain 64 18 59 14.9 82 82 N 8 13 30.06 1018 10 16.0934 N/A
8:15 pm 20:15 Cloudy 63 17.3 57 14 81 81 N 5 7 30.06 1018 10 16.0934 N/A
8:35 pm 20:35 Cloudy 63 17.2 57 14 82 82 N 5 7 30.06 1018 10 16.0934 N/A
8:55 pm 20:55 Cloudy 63 17 56 13.6 81 81 NNE 5 7 30.06 1018 10 16.0934 N/A
9:15 pm 21:15 Mostly Cloudy 63 17 56 13.6 81 81 N N/A 30.06 1018 10 16.0934 N/A
9:35 pm 21:35 Cloudy 63 17 56 13.5 80 80 N 3 6 30.09 1019 10 16.0934 N/A
9:55 pm 21:55 Cloudy 63 17 56 13.1 78 78 N 3 6 30.09 1019 10 16.0934 N/A
10:15 pm 22:15 Cloudy 62 16.7 56 13.1 79 79 N N/A 30.09 1019 10 16.0934 N/A
10:35 pm 22:35 Mostly Cloudy 62 16.6 55 13 79 79 NE 3 6 30.09 1019 10 16.0934 N/A
10:55 pm 22:55 Mostly Cloudy 62 16.6 56 13.5 82 82 N N/A 30.09 1019 10 16.0934 N/A
11:15 pm 23:15 Cloudy 62 16.6 56 13.1 80 80 ENE 3 6 30.09 1019 10 16.0934 N/A
11:35 pm 23:35 Cloudy 62 16.6 55 13 79 79 NNE 5 7 30.12 1020 10 16.0934 N/A
11:55 pm 23:55 Cloudy 62 16.6 55 12.5 77 77 NE 6 9 30.12 1020 10 16.0934 N/A

Powered by AerisWeather